This demonstration page uses our WeatherBlox Daily Observations layout. Learn more.

39.92423, -83.80882

Hourly Observations for April 12, 2017

Temp ( °F °C ) Dew Point ( °F °C ) Humidity (%) Winds ( mph kmh ) Pressure ( in mb ) Visibility ( mi km ) Precip ( " mm )
12:56 am 00:56 Clear 50 10 44 6.7 80 80 NNW 8 13 30.28 1025 10 16.0934 0 0
1:56 am 01:56 Clear 48 8.9 43 6.1 83 83 NNW 7 11 30.28 1025 10 16.0934 0 0
2:56 am 02:56 Clear 47 8.3 42 5.6 83 83 NNW 6 9 30.27 1025 10 16.0934 0 0
3:56 am 03:56 Clear 46 7.8 42 5.6 86 86 WNW 3 6 30.29 1026 10 16.0934 0 0
4:56 am 04:56 Clear 44 6.7 42 5.6 93 93 Calm 30.3 1026 10 16.0934 0 0
5:56 am 05:56 Clear 42 5.6 41 5 96 96 WSW 3 6 30.31 1027 10 16.0934 0 0
6:56 am 06:56 Clear with Mist and Fog 40 4.4 39 3.9 97 97 Calm 30.32 1027 6 9.65604 0 0
7:34 am 07:34 Sunny with Mist and Fog 39 4 39 4 100 100 Calm 30.36 1028 2.5 4.02335 0 0
7:44 am 07:44 Sunny 41 5 41 5 100 100 Calm 30.36 1028 10 16.0934 0 0
7:56 am 07:56 Sunny 42 5.6 42 5.6 100 100 WNW 3 6 30.33 1027 10 16.0934 0 0
8:56 am 08:56 Sunny 49 9.4 43 6.1 80 80 WNW 5 7 30.35 1028 10 16.0934 0 0
9:56 am 09:56 Sunny 51 10.6 44 6.7 77 77 W 8 13 30.37 1028 10 16.0934 0 0
10:56 am 10:56 Mostly Sunny 53 11.7 42 5.6 66 66 WNW 8 13 30.38 1029 10 16.0934 0 0
11:56 am 11:56 Sunny 55 12.8 42 5.6 62 62 NNW 9 15 30.39 1029 10 16.0934 0 0
12:56 pm 12:56 Sunny 59 15 43 6.1 56 56 N 6 9 30.38 1029 10 16.0934 0 0
1:56 pm 13:56 Sunny 61 16.1 42 5.6 50 50 NNW 9 15 30.37 1029 10 16.0934 0 0
2:56 pm 14:56 Sunny 63 17.2 41 5 45 45 WNW 10 17 30.37 1028 10 16.0934 0 0
3:56 pm 15:56 Sunny 64 17.8 40 4.4 41 41 NNW 7 11 30.35 1028 10 16.0934 0 0
4:56 pm 16:56 Sunny 65 18.3 39 3.9 39 39 N 9 15 30.35 1028 10 16.0934 0 0
5:56 pm 17:56 Sunny 64 17.8 38 3.3 38 38 NNE 5 7 30.36 1028 10 16.0934 0 0
6:56 pm 18:56 Sunny 63 17.2 38 3.3 40 40 N 6 9 30.37 1028 10 16.0934 0 0
7:56 pm 19:56 Sunny 59 15 39 3.9 48 48 N 5 7 30.38 1029 10 16.0934 0 0
8:56 pm 20:56 Clear 57 13.9 38 3.3 49 49 N 6 9 30.39 1029 10 16.0934 0 0
9:56 pm 21:56 Clear 52 11.1 37 2.8 57 57 NE 3 6 30.4 1030 10 16.0934 0 0
10:56 pm 22:56 Clear 51 10.6 38 3.3 61 61 ENE 5 7 30.4 1029 10 16.0934 0 0
11:56 pm 23:56 Clear 48 8.9 39 3.9 71 71 E 6 9 30.38 1029 10 16.0934 0 0

Powered by AerisWeather